Volver al catálogo

CZ-6A DEB

ActivoPO
NORAD 61423·DEBRIS·🇨🇳 China

Lanzado Aug 6, 2024 desde Taiyuan Satellite Launch Center

Loading…

Próximos Pases (próximas 24 horas)

TLE

ActualizadoSource: Space-Track

Época: Sep 14, 2026, 05:08 UTC

1 61423U 24140YQ  26257.21425164  .00002049  00000-0  43882-3 0  9997
2 61423  88.8257 243.6034 0129110   2.3085 357.8690 14.53239393109246

Sigue CZ-6A DEB en tiempo real con AllMySat

Download on the App Store